User: anonymous   Login
Location: Unspecified
(0.0000°N, 0.0000°E)
Time: 19:00:14
(UTC+00:00)
Language:

SES 5 - Orbit

View from above orbital plane
View from above orbital plane
View from above satellite
View from above satellite

Ground track
Ground track

The orbit is defined by the following mean orbital elements,

1 38652U          26145.08561955 +.00000000 +00000-0 +00000-0 0 00004
2 38652   0.0517 306.9145 0001982 111.6351 219.9281  1.00272696    00
Epoch (UTC): 25 May 2026 02:03:17
Eccentricity: 0.0001982
inclination: 0.0517°
perigee height: 35778 km
apogee height: 35795 km
right ascension of ascending node: 306.9145°
argument of perigee: 111.6351°
revolutions per day: 1.00272696
mean anomaly at epoch: 219.9281°

The dashed part of the orbit path shows where the satellite is in the earth's shadow,  

DLR